Temp
22 23 23 21 20 17 21 23 23 25 26 24 24 26 26 24 27 25 21 21 21 21 21 21 20 20 20 20 20 21 21 21 21 21 20 21 21 21 20 20 19 19 19 19 19 19 19 19 19
22 23 22 15 18 20 21 22 25 26 27 25 26 25 25 26 23 20 20 20 21 21 21 21 20 20 20 20 20 21 22 21 21 20 21 21 21 21 20 20 19 19 19 19 19 19 19 19 19
22 23 18 16 15 20 22 24 25 26 25 26 26 24 25 26 23 21 22 22 21 21 21 20 20 20 20 20 20 21 21 21 21 21 21 21 20 21 20 20 19 19 19 18 19 19 19 19 19
23 19 16 19 21 21 22 24 24 23 26 26 25 25 24 25 23 24 23 22 21 21 21 21 20 20 20 20 20 20 20 21 20 20 20 20 20 21 20 20 19 19 18 18 19 19 19 19 19
20 16 18 19 21 21 21 22 22 24 25 26 25 26 24 24 24 24 23 22 22 21 21 20 20 20 20 20 19 19 19 19 20 20 20 20 20 20 20 20 20 19 18 18 18 18 18 18 19
17 16 19 20 20 21 21 21 22 25 25 25 25 24 24 23 24 23 23 22 22 22 21 20 20 20 20 19 19 19 19 19 19 19 20 20 20 20 20 20 20 19 19 18 18 18 19 18 18
18 17 19 20 20 21 24 21 24 24 25 26 24 25 23 23 23 23 23 22 21 21 21 21 21 20 20 20 20 19 19 19 19 20 20 20 20 20 20 20 20 19 19 18 18 19 18 18 18
15 17 19 19 20 22 24 23 24 24 25 23 24 24 24 23 23 22 21 21 21 21 22 21 21 21 20 20 21 21 20 20 20 20 20 20 20 20 20 20 20 19 19 18 18 19 18 18 18
18 17 17 20 20 23 23 22 23 23 24 23 24 24 23 23 22 21 20 20 20 20 21 21 21 20 20 20 20 20 20 20 20 20 20 20 20 20 19 19 19 19 19 19 19 19 19 18 18
17 16 19 20 21 23 22 22 22 23 22 23 24 24 22 22 21 20 20 19 20 20 20 20 20 20 20 20 20 20 20 20 20 20 20 20 20 19 19 19 19 19 19 19 19 19 19 19 18
17 18 19 21 21 21 22 21 23 23 21 22 24 23 22 21 20 20 20 20 20 20 21 20 20 22 21 21 21 20 20 20 20 20 20 20 19 19 19 19 19 19 19 19 19 19 18 19 18
20 19 19 21 22 21 21 22 22 21 22 24 22 23 23 21 20 20 20 21 20 20 21 21 21 22 21 21 21 21 20 20 20 20 20 20 19 19 19 19 19 19 19 19 19 19 19 19 18
19 20 20 20 19 19 20 19 20 20 21 20 20 20 20 20 21 23 22 22 20 20 21 22 22 21 21 21 21 20 21 20 20 20 20 20 19 19 19 20 20 19 19 19 19 19 19 18 18
20 20 19 19 20 20 20 20 20 21 20 20 20 19 18 19 20 21 22 22 22 21 21 22 22 22 21 21 22 21 20 20 20 20 20 20 20 20 20 20 20 20 20 19 19 18 19 18 18
20 19 18 19 20 20 19 20 19 20 20 19 18 18 18 17 19 19 22 22 23 23 22 22 22 22 22 22 22 22 21 20 20 20 20 20 20 20 20 20 20 20 20 19 18 18 18 18 18
19 17 17 19 20 20 21 18 20 20 20 19 18 17 17 18 18 21 22 21 22 23 22 22 22 23 22 22 22 22 22 21 20 20 20 20 20 20 19 19 19 19 19 18 18 17 17 17 17
16 16 17 18 20 20 20 17 19 19 19 18 18 18 18 17 18 21 23 23 22 22 22 22 21 22 23 22 23 22 22 21 20 20 20 20 20 20 20 20 19 19 18 17 17 17 16 16 16
16 16 16 16 19 19 18 17 17 18 18 18 17 17 17 17 18 21 23 24 24 23 22 22 21 21 23 23 23 22 21 21 20 21 21 20 20 20 19 19 19 18 18 17 16 16 15 16 16
17 16 15 16 17 16 16 17 17 17 17 17 18 18 17 16 18 20 22 23 23 23 22 21 21 21 20 19 21 21 21 21 20 20 20 20 19 19 19 19 19 18 18 17 16 16 15 14 14
16 15 14 15 17 16 16 17 18 17 17 18 17 16 16 17 17 18 19 21 22 23 23 21 20 19 20 19 21 21 21 21 20 20 20 19 19 19 18 18 18 18 17 16 16 16 14 13 14
15 15 15 16 17 17 16 16 18 19 18 17 15 13 13 13 15 16 17 18 20 21 22 22 20 20 19 19 19 20 19 18 17 18 18 18 18 18 18 18 17 17 17 17 16 15 15 14 13
15 16 16 16 16 15 17 15 17 18 17 15 13 12 12 12 13 14 15 15 15 19 20 21 20 19 18 19 19 21 18 17 18 18 18 18 18 18 17 17 17 17 16 16 16 15 15 15 14
16 18 17 17 15 15 16 14 14 16 17 12 11 12 12 12 12 13 14 14 15 17 19 20 19 18 18 18 19 19 18 18 18 18 17 17 17 17 17 17 16 16 16 15 15 15 15 15 15
15 16 15 15 14 14 15 15 14 15 11 10 11 12 12 12 12 13 13 13 13 16 17 18 19 18 17 17 18 18 18 17 17 17 16 16 16 16 16 16 16 16 16 15 15 15 15 15 15
14 15 12 13 13 14 15 14 15 11 11 11 11 11 12 12 12 13 13 13 13 13 15 17 17 16 16 17 17 18 18 18 18 17 17 16 16 16 16 16 16 16 16 15 15 15 15 15 14
12 12 12 13 11 12 13 13 13 11 11 11 12 12 12 12 12 12 13 13 13 12 14 15 15 15 15 15 17 17 17 18 19 19 18 17 17 17 16 15 15 15 15 15 15 15 14 14 14
12 11 11 11 10 9 11 13 11 11 10 11 11 12 11 12 12 12 13 12 13 12 12 13 13 14 14 15 16 17 17 16 17 17 17 17 16 16 15 15 15 15 15 15 15 15 14 14 13
11 11 11 10 9 10 10 11 12 9 9 10 10 11 11 11 11 12 12 12 12 12 12 13 13 13 13 14 15 16 16 16 16 16 16 15 15 15 16 15 15 15 15 15 15 13 13 13 13
9 9 8 9 8 8 10 11 10 8 9 9 9 10 11 11 11 11 12 12 11 12 13 13 13 14 14 14 14 15 15 15 16 15 15 15 15 15 15 15 15 14 15 14 15 14 13 12 12
9 8 7 6 7 6 4 7 10 7 8 9 9 10 11 12 12 11 12 11 11 11 12 12 13 14 13 14 15 14 14 14 14 14 14 15 15 14 14 14 14 14 14 14 14 14 13 12 12
Height
772 772 773 775 802 812 807 795 781 779 771 763 757 759 762 762 764 783 756 758 759 762 767 771 774 777 779 781 784 786 788 789 790 791 792 792 793 794 795 797 797 797 797 796 797 797 796 794 795
772 773 774 787 814 819 810 788 780 771 762 759 756 757 762 766 757 759 759 759 762 765 768 772 775 777 780 781 783 786 789 791 791 792 792 793 793 793 795 798 799 799 799 798 797 798 797 797 797
772 773 783 804 825 818 807 782 774 767 761 761 761 757 760 762 757 757 757 759 762 767 769 772 776 778 781 783 784 787 788 791 792 793 793 793 794 795 796 798 800 800 800 800 800 799 799 799 798
774 776 790 805 805 798 792 779 774 774 761 759 759 764 756 752 752 754 756 758 761 766 770 772 775 778 781 784 786 787 788 790 793 794 794 794 794 794 796 798 800 801 801 802 802 801 801 801 801
776 787 808 809 802 792 785 778 776 773 766 762 758 762 762 755 754 754 754 757 759 764 769 772 774 778 780 783 785 787 790 792 793 795 795 794 794 796 796 798 800 802 802 803 802 803 802 804 803
789 794 811 813 802 788 782 775 774 767 764 761 760 764 761 755 756 757 758 758 761 761 766 771 775 778 781 781 783 785 788 791 793 795 796 796 795 796 797 798 799 802 803 804 803 803 803 804 805
789 801 807 805 802 792 776 771 770 770 767 765 759 767 760 755 755 756 758 760 763 764 767 768 770 772 777 780 782 784 786 789 792 794 795 796 796 797 797 798 798 801 803 804 805 803 804 804 806
789 797 802 801 800 790 771 770 765 767 766 759 758 771 767 755 755 757 760 761 761 764 766 769 771 771 774 776 778 781 785 788 791 791 794 795 797 796 798 798 798 799 803 804 804 805 804 806 807
783 806 812 797 797 783 771 774 765 762 765 764 760 759 757 754 755 758 760 762 764 765 767 769 770 773 774 776 779 781 782 784 788 790 793 792 794 797 798 798 798 799 801 804 805 804 804 806 807
792 811 799 786 781 778 775 775 773 770 770 766 761 756 756 755 755 755 757 759 761 762 765 768 771 773 775 776 778 780 782 783 785 787 789 791 793 795 796 798 798 800 800 802 805 805 805 805 807
792 799 787 779 778 776 776 777 769 771 772 767 764 758 756 757 758 757 757 756 754 761 763 765 768 772 774 776 778 779 779 782 783 784 787 789 791 794 794 796 798 799 800 802 805 805 805 806 807
792 786 784 778 773 775 776 770 771 770 761 757 757 755 755 756 758 756 756 756 756 756 758 763 765 767 771 775 776 777 778 779 780 782 785 787 789 791 792 794 796 797 799 800 803 806 805 807 807
790 785 780 777 777 776 773 774 772 767 756 754 754 754 753 752 753 755 755 754 756 757 757 759 762 764 767 771 773 776 777 779 779 780 783 785 787 788 790 792 794 795 797 800 802 805 805 806 807
784 782 781 777 774 772 773 770 768 757 755 753 751 751 749 748 746 747 750 749 751 753 754 756 757 760 764 766 768 772 776 777 778 779 780 782 784 786 789 790 792 794 796 798 801 803 805 806 806
779 787 783 775 771 771 770 773 771 757 755 755 753 751 749 747 745 744 741 741 741 744 748 749 753 757 759 763 766 768 772 777 777 778 779 780 782 784 787 789 791 793 796 797 799 802 804 805 805
787 791 797 776 770 768 769 784 765 759 757 755 751 748 746 743 741 738 735 737 738 738 741 743 747 751 756 758 762 765 768 772 776 777 778 779 781 783 784 786 789 792 795 797 799 801 803 804 805
800 804 798 789 772 773 773 783 767 759 759 758 751 744 741 738 733 730 730 730 733 734 734 738 742 745 748 755 758 762 766 769 773 776 777 778 780 781 782 785 788 791 794 796 798 800 802 803 805
801 802 798 797 779 774 780 774 769 763 760 756 751 745 741 738 731 725 724 725 726 727 730 732 736 740 745 750 754 760 763 766 770 773 776 776 779 781 782 784 786 789 792 794 797 799 801 804 806
788 794 798 791 781 785 783 772 767 760 759 755 747 743 741 738 728 722 718 717 719 721 722 725 729 733 738 743 748 754 757 762 766 769 773 775 777 780 782 784 785 787 791 793 795 797 800 803 806
790 795 797 784 774 780 778 767 762 758 753 749 753 751 745 737 727 720 716 714 711 712 713 716 720 725 728 735 741 746 751 756 762 765 770 774 776 778 781 783 784 786 789 792 794 796 799 803 805
794 794 790 787 774 771 774 768 757 751 749 749 753 757 752 748 737 724 715 712 710 706 705 707 711 715 721 727 735 741 748 754 760 764 767 772 775 777 779 783 785 786 788 790 793 795 797 800 804
794 781 779 779 783 788 770 789 763 756 753 758 759 760 756 751 741 729 721 711 708 703 703 703 705 710 717 721 727 731 737 747 752 757 764 770 773 777 780 782 784 786 787 789 792 794 796 799 802
781 770 776 777 783 782 778 790 769 759 753 768 768 763 758 752 746 734 724 717 708 704 703 701 704 706 711 716 723 727 735 742 747 755 765 768 772 776 778 780 782 785 786 788 791 793 795 798 800
777 777 779 779 788 795 776 781 775 766 778 780 773 765 759 751 743 735 727 721 714 707 705 705 702 706 708 716 719 724 731 739 746 753 760 767 770 774 776 779 781 783 786 788 790 792 794 797 798
784 783 803 796 798 787 773 781 769 783 784 786 784 772 761 753 745 737 728 721 718 711 710 708 709 708 710 710 719 724 731 737 743 749 755 762 767 771 773 777 779 781 785 787 790 791 793 795 796
795 795 799 797 802 796 783 780 772 783 782 783 782 776 763 756 751 744 739 731 724 719 716 714 712 712 715 717 715 722 734 738 742 746 752 758 764 768 771 775 778 781 784 786 788 790 792 794 796
798 804 802 805 810 814 794 777 779 778 778 777 776 774 769 763 759 753 744 737 732 730 722 718 716 716 718 719 720 721 735 742 743 748 753 757 762 765 770 774 778 780 783 785 787 789 791 794 795
803 804 802 810 825 807 797 789 774 791 786 783 780 776 774 769 762 755 753 748 743 737 730 725 721 719 720 723 725 727 732 743 748 749 752 758 762 765 770 773 776 779 782 784 786 788 790 792 795
814 815 815 815 824 826 808 788 787 794 789 789 784 779 775 771 769 764 759 755 749 741 735 730 728 723 724 727 730 729 733 747 746 750 755 760 763 765 770 773 775 778 781 783 786 787 790 793 796
813 819 821 831 832 839 852 816 785 795 790 785 782 778 773 769 766 765 760 755 752 745 738 735 731 729 730 730 733 736 742 746 748 753 756 761 763 766 770 773 775 778 780 783 785 787 790 793 795
Wind_Speed
2 3 4 5 4 5 2 4 1 5 4 4 2 1 2 1 2 3 3 8 18 26 26 22 19 17 15 13 13 12 11 10 11 10 10 9 8 8 7 8 11 11 11 12 12 12 13 15 14
2 2 4 3 4 2 4 3 1 2 2 3 2 3 5 3 1 3 9 5 20 29 26 22 18 16 14 14 14 15 11 9 9 10 9 10 7 7 7 7 10 10 10 11 12 12 13 14 15
2 3 4 4 3 3 3 3 3 4 6 2 2 3 1 1 1 9 2 14 21 29 26 23 19 17 16 14 14 15 14 11 9 9 9 10 7 6 7 7 9 9 10 11 11 12 13 14 15
1 5 4 3 4 5 5 4 4 8 3 1 2 2 2 5 8 9 12 20 24 27 24 22 19 18 16 13 12 12 14 13 10 8 9 9 9 6 8 7 9 8 9 10 11 11 12 12 13
5 3 4 2 4 4 4 4 4 3 2 2 1 1 3 3 4 12 21 23 25 26 23 21 18 17 17 14 13 11 9 9 9 9 8 9 8 7 8 8 9 7 8 8 10 10 11 11 11
4 3 3 2 4 4 5 4 3 2 2 4 4 1 2 1 10 16 20 21 22 26 26 23 19 18 16 15 14 13 12 10 9 8 8 6 8 8 8 9 9 7 7 7 8 9 9 9 9
6 4 3 2 3 5 3 7 3 4 3 2 2 1 4 3 10 17 20 19 21 23 25 25 24 22 18 16 14 13 13 12 9 8 10 8 8 8 7 9 9 8 7 7 7 8 8 9 9
4 4 3 4 3 5 2 6 0 4 1 5 4 2 5 4 12 19 19 19 21 24 26 25 24 23 22 20 18 16 13 11 9 10 10 10 8 8 9 8 9 9 8 7 8 7 7 8 8
3 4 2 4 5 4 3 7 4 3 2 5 3 3 3 3 17 19 17 17 18 22 24 25 25 24 23 21 18 16 15 14 12 10 10 10 9 9 9 9 9 10 10 8 7 7 7 8 8
4 3 6 4 3 1 4 2 6 6 5 4 4 3 8 12 20 17 15 17 22 25 26 22 22 25 24 23 21 18 16 15 14 12 13 12 10 11 9 9 9 9 9 7 6 4 6 8 8
3 5 3 4 4 3 4 5 3 4 6 6 5 6 2 1 4 10 14 19 27 23 27 27 25 25 25 24 22 21 20 17 15 13 13 13 12 12 11 10 10 9 8 7 7 7 5 7 8
1 6 4 5 1 4 4 3 3 8 11 3 8 4 5 6 6 9 14 20 23 28 31 30 29 27 27 24 23 22 21 20 18 16 14 15 14 13 13 12 12 11 9 8 8 8 6 8 8
3 4 5 7 8 7 3 8 6 7 13 9 9 8 10 9 9 16 23 24 19 24 30 33 31 30 28 25 24 23 23 22 19 17 16 16 15 14 14 12 13 11 9 9 9 10 8 9 5
1 4 6 7 7 5 6 7 4 10 6 10 7 10 10 9 11 13 18 28 28 30 31 32 34 32 28 27 26 25 24 22 19 18 18 16 16 15 14 12 14 14 11 9 8 9 9 7 5
2 5 8 7 4 4 4 4 6 5 6 9 9 9 8 10 15 17 26 28 35 36 35 34 36 34 31 30 27 25 24 22 20 18 18 17 15 14 15 10 9 9 8 7 7 7 7 6 5
3 3 3 5 3 4 2 7 7 5 6 9 10 8 7 7 9 21 25 24 28 35 35 36 37 35 32 32 29 26 22 22 20 18 18 16 15 15 12 11 10 8 8 7 6 6 6 6 5
3 5 3 7 1 3 3 6 6 16 6 10 10 11 8 9 8 19 20 19 24 33 35 37 36 37 36 32 29 25 22 19 19 18 17 16 15 14 12 11 10 10 10 8 7 7 6 5 5
5 4 4 4 4 10 13 16 7 9 9 11 10 11 11 10 14 20 23 19 20 28 34 36 38 36 34 33 28 24 21 20 21 20 18 18 17 16 15 13 12 12 11 9 9 8 5 5 6
2 4 7 4 8 5 9 15 11 9 9 10 13 11 9 10 13 21 26 24 19 20 29 36 35 38 36 34 32 27 27 25 24 23 21 21 21 18 16 14 13 13 12 11 9 8 9 10 10
4 4 6 6 8 4 8 16 11 10 8 6 7 11 15 16 19 16 21 29 25 24 26 31 36 36 40 37 37 31 31 28 25 21 20 22 21 20 17 15 14 14 14 10 9 10 12 6 12
3 5 5 11 3 3 5 8 4 4 4 6 8 10 13 17 18 17 14 18 25 26 28 29 35 40 38 35 35 27 28 21 20 20 20 19 17 16 15 13 13 13 10 9 10 11 11 9 12
3 8 11 7 2 2 2 6 6 3 5 10 15 16 17 19 19 16 16 18 21 22 24 29 32 35 35 41 38 41 31 21 22 29 23 19 17 15 14 13 13 12 12 10 9 9 9 7 13
8 1 3 3 4 1 3 1 7 4 5 9 15 16 17 18 17 18 18 24 26 20 19 25 26 31 34 42 40 38 30 28 25 23 20 19 17 14 12 13 15 13 11 9 9 10 10 10 7
5 3 3 3 1 3 5 7 7 3 4 6 11 14 17 19 20 19 25 25 24 24 9 15 24 27 32 33 38 36 35 29 25 26 24 20 16 13 11 12 15 14 10 7 10 10 10 9 8
6 3 2 3 1 6 1 2 6 5 6 5 10 13 14 17 20 22 23 22 25 23 18 5 14 19 26 34 32 34 34 32 28 29 27 23 18 15 14 14 15 12 11 8 7 9 8 7 8
3 1 3 6 3 4 5 5 2 6 3 3 8 12 16 19 19 21 22 25 27 24 12 4 8 13 19 26 34 29 26 26 26 25 24 21 17 14 15 13 13 12 11 9 8 6 6 7 7
1 3 1 0 3 1 4 3 3 4 10 12 14 15 17 17 17 18 23 32 29 23 9 1 7 11 17 20 24 26 19 18 20 20 18 17 14 13 13 13 11 10 10 9 7 5 5 7 7
4 0 2 2 1 4 5 5 4 7 9 12 15 14 13 14 18 18 17 27 34 24 9 6 11 15 16 18 21 22 20 11 16 18 18 17 15 15 12 12 10 10 11 10 8 6 7 9 8
3 1 4 2 1 3 4 5 5 5 6 10 12 13 12 11 11 13 15 22 24 27 11 4 12 17 17 18 16 21 19 16 17 19 18 15 14 12 11 9 9 11 12 11 8 6 8 8 8
2 2 3 3 3 2 1 8 4 6 11 12 13 14 13 12 11 11 14 17 20 25 18 3 9 14 16 18 17 16 19 20 19 18 16 13 12 12 11 10 11 10 12 11 9 7 6 6 7
Wind_Direction
40 6 335 26 50 61 281 283 263 325 346 326 314 42 133 30 148 211 347 161 167 165 165 170 168 172 170 164 165 155 158 152 155 147 134 123 137 127 116 115 100 91 89 89 87 76 69 71 74
42 97 64 78 79 62 274 261 257 281 292 251 4 3 33 352 96 105 124 168 168 166 166 171 171 170 166 171 172 160 155 167 160 149 145 143 139 128 122 123 109 101 95 93 95 84 78 80 80
98 53 79 93 99 183 228 261 277 299 291 250 114 51 165 233 317 166 212 163 168 171 172 172 174 168 168 169 160 165 160 173 174 170 151 144 154 145 136 133 120 108 100 97 100 92 84 86 85
150 20 43 88 194 236 210 270 287 313 322 33 150 109 270 200 164 179 161 162 167 174 178 174 174 169 172 173 174 176 176 177 182 173 162 161 158 157 146 147 134 118 106 107 109 99 92 86 88
54 54 60 99 250 271 254 270 284 270 287 322 314 222 273 2 159 167 164 168 173 176 179 175 172 174 173 173 169 169 175 183 187 187 180 172 166 157 150 154 148 130 116 117 117 109 96 96 93
41 92 57 266 262 268 286 245 260 243 22 318 352 61 266 204 170 174 172 173 181 176 177 176 176 179 179 176 175 178 181 188 189 190 181 182 173 170 161 165 156 142 127 126 126 119 108 102 109
117 95 199 251 267 301 277 324 46 329 311 32 144 200 287 233 199 174 176 176 180 181 180 181 181 182 185 183 182 181 182 184 189 189 187 184 195 186 176 171 165 163 144 134 140 130 125 109 119
102 89 157 231 224 261 317 349 33 48 277 304 158 252 292 270 179 174 176 181 182 184 187 189 188 186 188 187 187 183 185 183 199 189 189 195 204 202 193 185 178 172 165 149 135 138 124 122 123
131 59 246 254 166 256 334 21 315 276 280 344 295 224 247 230 171 170 173 183 189 191 196 196 195 194 193 195 194 191 187 181 201 195 195 194 203 207 200 196 194 186 183 161 139 138 138 141 132
91 121 226 222 227 293 320 357 327 339 338 313 317 315 360 190 177 172 181 188 196 200 201 198 203 204 201 201 199 198 195 191 194 198 199 200 203 205 207 206 201 200 196 176 151 159 155 160 154
158 197 217 265 247 304 307 309 248 286 289 214 258 282 50 164 219 211 206 199 204 206 204 203 204 207 209 209 209 204 200 201 202 203 203 202 203 205 204 205 205 208 204 196 170 187 176 165 164
260 259 237 283 247 323 270 273 257 205 257 249 242 270 309 193 230 231 233 218 210 208 210 210 211 208 211 215 216 213 210 209 208 210 206 207 207 209 211 211 209 207 208 204 183 198 184 167 160
207 269 280 270 291 271 280 255 232 248 264 246 245 262 255 252 234 231 239 239 228 215 218 216 214 215 213 213 220 220 219 218 216 213 214 211 211 214 217 215 216 213 213 209 197 197 190 182 195
252 257 271 287 275 250 238 274 143 277 270 275 259 239 242 244 245 246 232 231 229 229 224 220 218 216 214 215 215 220 224 224 222 218 217 216 214 218 225 235 228 227 222 207 197 193 201 201 209
277 307 319 273 272 262 157 279 224 278 319 295 300 286 280 257 273 263 257 229 227 227 229 220 219 216 214 216 218 217 223 228 229 227 219 210 209 218 223 226 215 219 214 200 183 187 194 211 224
341 57 328 293 349 296 109 275 303 335 339 306 313 299 285 262 247 276 278 249 239 226 223 226 217 218 217 216 217 217 220 227 231 223 212 208 207 209 210 212 214 213 200 195 197 198 196 200 207
348 257 246 314 337 327 52 285 286 310 312 301 301 293 295 291 278 273 283 264 246 235 224 224 220 217 220 217 214 216 217 220 218 214 205 200 199 200 199 199 200 199 194 193 199 190 197 187 177
216 241 244 251 299 318 312 288 276 283 299 289 291 293 296 293 279 287 288 274 256 243 232 227 223 223 221 220 216 213 210 211 209 209 209 205 204 201 197 193 192 196 196 189 187 189 171 184 180
149 214 251 256 270 284 260 279 277 278 282 285 284 310 310 300 292 291 291 278 262 245 234 227 219 219 218 212 199 198 203 206 210 213 218 208 202 204 201 198 198 203 205 200 192 171 167 160 167
202 265 270 272 251 177 270 281 279 268 264 269 352 336 339 327 322 304 295 292 267 251 229 223 216 207 210 207 202 196 197 206 212 205 205 211 214 209 205 205 202 201 198 197 195 184 162 149 166
248 230 231 250 308 264 291 289 194 292 282 32 21 355 349 336 327 325 324 314 297 259 228 215 212 207 203 197 193 184 190 192 186 190 194 195 199 200 204 209 204 197 202 205 197 188 178 159 187
262 237 251 261 45 241 69 290 304 306 336 20 6 355 350 342 336 340 338 339 327 292 242 219 208 199 193 200 184 186 179 173 192 194 194 194 195 198 205 208 200 194 195 192 194 195 192 190 192
229 293 257 250 199 232 182 132 272 341 301 5 350 351 349 348 344 344 343 339 341 330 258 221 206 196 190 196 190 182 178 182 188 180 184 188 192 201 199 201 198 199 195 189 192 194 202 208 216
324 292 29 29 158 278 196 178 278 324 9 342 343 354 350 348 351 351 355 348 345 353 311 231 200 193 192 185 188 180 183 177 168 174 181 188 190 193 195 196 198 187 188 194 198 205 209 211 214
18 78 312 296 212 240 130 180 246 76 39 345 336 347 356 358 354 353 354 350 346 360 343 259 201 186 187 181 184 186 190 181 174 179 180 179 185 195 193 192 186 190 194 192 202 199 215 224 219
15 30 178 235 215 268 326 241 150 99 88 360 352 356 9 4 357 354 352 351 351 348 349 312 188 170 178 182 182 183 186 181 180 181 179 181 190 187 184 190 192 189 190 204 204 206 221 218 216
326 77 120 106 303 47 243 277 169 32 25 16 10 4 1 2 355 355 347 355 347 338 355 16 161 160 176 180 173 158 170 182 172 170 176 174 176 176 179 184 184 189 187 187 191 216 210 211 219
62 203 132 81 259 247 290 273 224 28 13 3 1 5 354 351 353 351 348 348 346 332 347 95 128 129 138 143 142 134 136 171 182 168 166 166 164 166 180 188 204 188 183 188 190 190 188 190 205
345 36 52 84 57 210 288 265 125 74 19 350 337 341 341 346 342 337 333 337 341 339 332 105 120 122 124 129 126 136 139 173 158 157 158 161 163 170 182 195 191 190 189 179 180 159 163 182 196
156 118 99 138 201 203 190 270 120 335 323 323 322 317 322 324 325 324 323 332 335 340 325 281 136 133 132 124 123 123 147 151 146 152 155 158 165 161 172 179 178 181 180 180 187 178 177 182 192